• In Russia
  • List of Countries
  • For 7 days
  • Water Temperature
  • Satellite Maps
  • Weather Map
  • Weather Widgets
  • user-avatar
    Login

    Hourly Weather Rychwaldek

    Today, 23 July, Tuesday

    Time Temperature Precipitation Wind Pressure Humidity
    00:00 +19°C° 0.1 mm 1 mps 726 mmHg 82%
    01:00 +17°C° 0 mm 0 mps 726 mmHg 85%
    02:00 +19°C° 0.3 mm 1 mps 725 mmHg 88%
    03:00 +18°C° 0.3 mm 1 mps 725 mmHg 91%
    04:00 +18°C° 0.3 mm 1 mps 725 mmHg 94%
    05:00 +18°C° 0.3 mm 1 mps 725 mmHg 95%
    06:00 +18°C° 0.3 mm 1 mps 725 mmHg 96%
    07:00 +18°C° 0.3 mm 1 mps 725 mmHg 97%
    08:00 +18°C° 0.4 mm 1 mps 725 mmHg 97%
    09:00 +18°C° 0.4 mm 1 mps 725 mmHg 97%
    10:00 +18°C° 0.4 mm 1 mps 725 mmHg 97%
    11:00 +18°C° 0.1 mm 1 mps 725 mmHg 97%
    12:00 +18°C° 0.1 mm 1 mps 725 mmHg 97%
    13:00 +19°C° 0.1 mm 1 mps 725 mmHg 96%
    14:00 +19°C° 0.1 mm 1 mps 725 mmHg 96%
    15:00 +19°C° 0.1 mm 1 mps 725 mmHg 95%
    16:00 +19°C° 0.1 mm 1 mps 725 mmHg 95%
    17:00 +19°C° 0.1 mm 1 mps 725 mmHg 95%
    18:00 +19°C° 0.1 mm 1 mps 725 mmHg 96%
    19:00 +19°C° 0.1 mm 1 mps 724 mmHg 96%
    20:00 +18°C° 0 mm 1 mps 725 mmHg 96%
    21:00 +18°C° 0 mm 1 mps 725 mmHg 96%
    22:00 +16°C° 0 mm 0 mps 725 mmHg 96%
    23:00 +18°C° 0.3 mm 1 mps 725 mmHg 96%

    Tomorrow, 24 July, Wednesday

    Time Temperature Precipitation Wind Pressure Humidity
    00:00 +18°C° 0.3 mm 1 mps 725 mmHg 96%
    01:00 +18°C° 0.3 mm 1 mps 724 mmHg 97%
    02:00 +18°C° 0.1 mm 1 mps 724 mmHg 96%
    03:00 +18°C° 0.1 mm 1 mps 724 mmHg 96%
    04:00 +18°C° 0.1 mm 1 mps 724 mmHg 96%
    05:00 +19°C° 0 mm 1 mps 724 mmHg 95%
    06:00 +19°C° 0 mm 1 mps 724 mmHg 95%
    07:00 +20°C° 0 mm 1 mps 724 mmHg 94%
    08:00 +21°C° 0.4 mm 1 mps 724 mmHg 90%
    09:00 +21°C° 0.4 mm 2 mps 724 mmHg 85%
    10:00 +24°C° 0.4 mm 2 mps 725 mmHg 81%
    11:00 +24°C° 0.5 mm 3 mps 724 mmHg 78%
    12:00 +25°C° 0.5 mm 3 mps 724 mmHg 75%
    13:00 +25°C° 0.5 mm 3 mps 724 mmHg 72%
    14:00 +25°C° 0.3 mm 3 mps 724 mmHg 72%
    15:00 +25°C° 0.3 mm 3 mps 724 mmHg 71%
    16:00 +25°C° 0.3 mm 2 mps 724 mmHg 70%
    17:00 +24°C° 0.1 mm 2 mps 724 mmHg 76%
    18:00 +23°C° 0.1 mm 1 mps 723 mmHg 82%
    19:00 +21°C° 0.1 mm 1 mps 723 mmHg 88%
    20:00 +21°C° 0 mm 1 mps 724 mmHg 89%
    21:00 +20°C° 0 mm 1 mps 724 mmHg 91%
    22:00 +19°C° 0 mm 1 mps 724 mmHg 92%
    23:00 +17°C° 0 mm 0 mps 724 mmHg 92%

    Day after tomorrow, 25 July, Thursday

    Time Temperature Precipitation Wind Pressure Humidity
    00:00 +16°C° 0 mm 0 mps 724 mmHg 92%
    01:00 +16°C° 0 mm 0 mps 724 mmHg 93%
    02:00 +16°C° 0 mm 0 mps 724 mmHg 93%
    03:00 +16°C° 0 mm 0 mps 724 mmHg 93%
    04:00 +15°C° 0 mm 0 mps 724 mmHg 93%
    05:00 +17°C° 0 mm 0 mps 724 mmHg 90%
    06:00 +19°C° 0 mm 0 mps 724 mmHg 86%
    07:00 +20°C° 0 mm 0 mps 724 mmHg 83%
    08:00 +22°C° 0 mm 0 mps 725 mmHg 75%
    09:00 +25°C° 0 mm 1 mps 725 mmHg 67%
    10:00 +27°C° 0 mm 1 mps 725 mmHg 60%
    11:00 +27°C° 0 mm 1 mps 725 mmHg 58%
    12:00 +28°C° 0 mm 1 mps 724 mmHg 56%
    13:00 +28°C° 0 mm 1 mps 724 mmHg 54%
    14:00 +28°C° 0.1 mm 2 mps 724 mmHg 56%
    15:00 +28°C° 0.1 mm 2 mps 724 mmHg 59%
    16:00 +27°C° 0.1 mm 2 mps 723 mmHg 62%
    17:00 +26°C° 0.1 mm 2 mps 723 mmHg 68%
    18:00 +24°C° 0.1 mm 1 mps 723 mmHg 75%
    19:00 +20°C° 0.1 mm 0 mps 722 mmHg 82%
    20:00 +20°C° 0 mm 0 mps 722 mmHg 85%
    21:00 +19°C° 0 mm 0 mps 723 mmHg 87%
    22:00 +20°C° 0 mm 1 mps 723 mmHg 90%
    23:00 +17°C° 0 mm 0 mps 722 mmHg 90%

    26 July, Friday

    Time Temperature Precipitation Wind Pressure Humidity
    00:00 +17°C° 0 mm 0 mps 722 mmHg 91%
    01:00 +16°C° 0 mm 0 mps 722 mmHg 92%
    02:00 +16°C° 0 mm 0 mps 722 mmHg 92%
    03:00 +16°C° 0 mm 0 mps 722 mmHg 93%
    04:00 +15°C° 0 mm 0 mps 721 mmHg 93%
    05:00 +17°C° 0.1 mm 0 mps 721 mmHg 90%
    06:00 +20°C° 0.1 mm 1 mps 721 mmHg 87%
    07:00 +22°C° 0.1 mm 1 mps 721 mmHg 84%
    08:00 +23°C° 0.1 mm 1 mps 721 mmHg 76%
    09:00 +24°C° 0.1 mm 2 mps 721 mmHg 69%
    10:00 +25°C° 0.1 mm 2 mps 721 mmHg 61%
    11:00 +25°C° 0.1 mm 2 mps 721 mmHg 59%
    12:00 +25°C° 0.1 mm 2 mps 721 mmHg 58%
    13:00 +26°C° 0.1 mm 3 mps 720 mmHg 56%
    14:00 +25°C° 0.2 mm 3 mps 720 mmHg 59%
    15:00 +25°C° 0.2 mm 3 mps 720 mmHg 62%
    16:00 +24°C° 0.2 mm 3 mps 720 mmHg 66%
    17:00 +23°C° 0.1 mm 2 mps 719 mmHg 73%
    18:00 +20°C° 0.1 mm 2 mps 719 mmHg 80%
    19:00 +20°C° 0.1 mm 1 mps 719 mmHg 88%
    20:00 +19°C° 0 mm 1 mps 719 mmHg 89%
    21:00 +18°C° 0 mm 1 mps 719 mmHg 91%
    22:00 +16°C° 0 mm 1 mps 719 mmHg 93%
    23:00 +15°C° 0 mm 1 mps 719 mmHg 93%

    27 July, Saturday

    Time Temperature Precipitation Wind Pressure Humidity
    00:00 +15°C° 0 mm 1 mps 718 mmHg 94%
    01:00 +15°C° 0 mm 1 mps 718 mmHg 94%
    02:00 +14°C° 0 mm 1 mps 718 mmHg 94%
    03:00 +14°C° 0 mm 1 mps 718 mmHg 94%
    04:00 +14°C° 0 mm 1 mps 718 mmHg 94%
    05:00 +15°C° 0 mm 1 mps 718 mmHg 91%
    06:00 +18°C° 0 mm 1 mps 718 mmHg 87%
    07:00 +19°C° 0 mm 1 mps 718 mmHg 84%
    08:00 +20°C° 0 mm 2 mps 718 mmHg 77%
    09:00 +21°C° 0 mm 3 mps 718 mmHg 69%
    10:00 +22°C° 0 mm 3 mps 719 mmHg 62%
    11:00 +23°C° 0 mm 4 mps 718 mmHg 60%
    12:00 +23°C° 0 mm 4 mps 718 mmHg 59%
    13:00 +25°C° 0 mm 4 mps 718 mmHg 58%
    14:00 +25°C° 0 mm 4 mps 718 mmHg 59%
    15:00 +25°C° 0 mm 4 mps 717 mmHg 61%
    16:00 +23°C° 0 mm 4 mps 717 mmHg 63%
    17:00 +22°C° 0 mm 3 mps 717 mmHg 70%
    18:00 +20°C° 0 mm 3 mps 717 mmHg 78%
    19:00 +19°C° 0 mm 2 mps 716 mmHg 86%
    20:00 +18°C° 0 mm 2 mps 716 mmHg 89%
    21:00 +18°C° 0 mm 1 mps 716 mmHg 92%
    22:00 +16°C° 0 mm 1 mps 716 mmHg 94%
    23:00 +16°C° 0 mm 1 mps 716 mmHg 94%

    28 July, Sunday

    Time Temperature Precipitation Wind Pressure Humidity
    00:00 +15°C° 0 mm 1 mps 716 mmHg 94%
    01:00 +15°C° 0 mm 1 mps 716 mmHg 94%
    02:00 +15°C° 0 mm 1 mps 716 mmHg 94%
    03:00 +15°C° 0 mm 1 mps 716 mmHg 94%
    04:00 +15°C° 0 mm 1 mps 715 mmHg 95%
    05:00 +16°C° 0 mm 1 mps 715 mmHg 94%
    06:00 +18°C° 0 mm 1 mps 716 mmHg 94%
    07:00 +18°C° 0 mm 2 mps 716 mmHg 93%
    08:00 +18°C° 0.1 mm 2 mps 716 mmHg 89%
    09:00 +19°C° 0.1 mm 3 mps 716 mmHg 84%
    10:00 +20°C° 0.1 mm 4 mps 716 mmHg 79%
    11:00 +21°C° 0.1 mm 4 mps 716 mmHg 75%
    12:00 +22°C° 0.1 mm 4 mps 716 mmHg 71%
    13:00 +23°C° 0.1 mm 5 mps 716 mmHg 67%
    14:00 +23°C° 0 mm 5 mps 716 mmHg 67%
    15:00 +23°C° 0 mm 5 mps 716 mmHg 67%
    16:00 +23°C° 0 mm 5 mps 716 mmHg 68%
    17:00 +22°C° 0 mm 4 mps 716 mmHg 73%
    18:00 +21°C° 0 mm 3 mps 716 mmHg 78%
    19:00 +20°C° 0 mm 2 mps 716 mmHg 84%
    20:00 +19°C° 0 mm 2 mps 717 mmHg 87%
    21:00 +19°C° 0 mm 1 mps 717 mmHg 90%
    22:00 +18°C° 0 mm 1 mps 717 mmHg 94%
    23:00 +18°C° 0 mm 1 mps 717 mmHg 94%
    Show more